AirNav   Air Wisconsin Up To $57,000 Bonus
 
 1158 users online  

L77 Chiriaco Summit Airport
Chiriaco Summit, California, USA

GOING TO CHIRIACO SUMMIT?


FAA INFORMATION EFFECTIVE 22 APRIL 2021

Location

FAA Identifier: L77
Lat/Long: 33-39-53.3200N 115-42-37.4900W
33-39.888667N 115-42.624833W
33.6648111,-115.7104139
(estimated)
Elevation: 1710.7 ft. / 521.4 m (surveyed)
Variation: 13E (1985)
From city: 1 mile NE of CHIRIACO SUMMIT, CA
Time zone: UTC -7 (UTC -8 during Standard Time)
Zip code: 92254

Airport Operations

Airport use: Open to the public
Activation date: 04/1943
Control tower: no
ARTCC: LOS ANGELES CENTER
FSS: RIVERSIDE FLIGHT SERVICE STATION
NOTAMs facility: RAL (NOTAM-D service available)
Attendance: UNATNDD
Wind indicator: yes
Segmented circle: yes

Airport Communications

CTAF: 122.9

Nearby radio navigation aids

VOR radial/distance  VOR name  Freq  Var
TRMr071/22.6THERMAL VORTAC116.2013E
TNPr159/27.0TWENTYNINE PALMS VORTAC114.2015E
PSPr096/37.9PALM SPRINGS VORTAC115.5013E

Airport Services

Parking: tiedowns
Airframe service: NONE
Powerplant service: NONE
Bottled oxygen: NONE
Bulk oxygen: NONE

Runway Information

Runway 6/24

Dimensions: 4000 x 50 ft. / 1219 x 15 m
Surface: asphalt, in excellent condition
Weight bearing capacity: 
Single wheel: GROSS WEIGHT STRENGTH PRVDD BY ARPT MANAGEMENT 6000 LBS.
RUNWAY 6  RUNWAY 24
Latitude: 33-39.825687N33-39.951623N
Longitude: 115-43.011935W115-42.237773W
Elevation: 1710.7 ft.1680.8 ft.
Traffic pattern: leftleft
Markings: basic, in good conditionbasic, in good condition
Runway end identifier lights: nono
Touchdown point: yes, no lightsyes, no lights

Airport Ownership and Management from official FAA records

Ownership: Publicly-owned
Owner: COUNTY OF RIVERSIDE
4080 LEMON STREET, 14TH FLOOR
RIVERSIDE, CA 92501
Phone 951-955-9722
Manager: ANGELA JAMISON
4080 LEMON STREET, 14TH FLOOR
RIVERSIDE, CA 92501
Phone 951-955-9418

Airport Operational Statistics

Aircraft operations: avg 115/week *
100% transient general aviation
* for 12-month period ending 31 December 2018

Additional Remarks

PILOTS VISIBILITY IS LIMITED TO 1400 FT FROM EITHER END OF RY 06/24.
FOR CD CTC LOS ANGELES ARTCC AT 661-575-2079.

Instrument Procedures

There are no published instrument procedures at L77.

Some nearby airports with instrument procedures:

KTRM - Jacqueline Cochran Regional Airport (23 nm W)
KUDD - Bermuda Dunes Airport (29 nm W)
KTNP - Twentynine Palms Airport (30 nm NW)
KCLR - Cliff Hatfield Memorial Airport (33 nm S)
L08 - Borrego Valley Airport (39 nm SW)
 
Loc | Ops | Rwys | IFR | FBO | Links
Com | Nav | Svcs | Stats | Notes
Area around L77 (Chiriaco Summit Airport)
 
Road maps at: MapQuest Bing Google
 
Aerial photo
WARNING: Photo may not be current or correct
Aerial photo of L77 (Chiriaco Summit Airport)
looking northeast

Do you have a better or more recent aerial photo of Chiriaco Summit Airport that you would like to share? If so, please send us your photo.

 
Sectional chart

 
Airport distance calculator
Flying to Chiriaco Summit Airport? Find the distance to fly.

From to L77

Sunrise and sunset
Times for 15-May-2021
 Local
(UTC-7)
 Zulu
(UTC)
Morning civil twilight05:1512:15
Sunrise05:4312:43
Sunset19:3502:35
Evening civil twilight20:0303:03

Current date and time
Zulu (UTC)  15-May-2021 18:47:41
Local (UTC-7)  15-May-2021 11:47:41
 
METAR
KTRM 
23nm W 
151752Z AUTO 00000KT 10SM CLR 31/06 A2974 RMK AO2 SLP073 T03060061 10306 20194 58001
KL08 
39nm SW 
151835Z AUTO 09006KT 10SM CLR 32/M01 A2975 RMK AO2
KPSP 
40nm W 
151753Z 34007KT 10SM CLR 29/07 A2978 RMK AO2 SLP081 T02890067 10289 20183 53000 $
KNXP 
44nm NW 
151756Z AUTO 31004KT 10SM CLR 29/M04 A2985 RMK AO2 SLP074 T02891044 10289 20161 56008
TAF
KTRM 
23nm W 
151731Z 1518/1618 14008KT P6SM SKC FM152200 29012G22KT P6SM SKC FM160100 33020G30KT P6SM SKC FM161000 33012G20KT P6SM SKC FM161700 31010KT P6SM SKC
NOTAMs
Click for the latest NOTAMs
NOTAMs are issued by the DoD/FAA and will open in a separate window not controlled by AirNav.

 

 
 

Would you like to see your business listed on this page?

 If your business provides an interesting product or service to pilots, flight crews, aircraft, or users of the Chiriaco Summit Airport, you should consider listing it here.  To start the listing process, click on the button below
 
Add a business
 

Other Pages about Chiriaco Summit Airport

www.rivcoeda.org/Default.aspx?tabid=504
www.desertusa.com/...
 
Update a link
 
Copyright © AirNav, LLC. All rights reserved. Privacy Policy  Contact